• în România
  • Lista ţărilor
  • Pe 7 zile
  • Temperatura apei
  • Hartă satelitară
  • Meteo pe hartă
  • Widget-uri
  • user-avatar
    Intrare

    Meteo pe oră la Kestenga

    Astăzi, 20 August, Luni

    Timp Temperatura Precipitaţii Vânt Presiune Umiditate
    00:00 +12°C° 0 mm 4 m/s 739 mmHg 69%
    01:00 +11°C° 0 mm 4 m/s 739 mmHg 70%
    02:00 +11°C° 0 mm 4 m/s 739 mmHg 70%
    03:00 +11°C° 0 mm 4 m/s 739 mmHg 71%
    04:00 +10°C° 0 mm 5 m/s 739 mmHg 72%
    05:00 +9°C° 0 mm 5 m/s 739 mmHg 73%
    06:00 +10°C° 0 mm 5 m/s 739 mmHg 69%
    07:00 +12°C° 0 mm 5 m/s 739 mmHg 65%
    08:00 +13°C° 0 mm 6 m/s 740 mmHg 60%
    09:00 +14°C° 0 mm 6 m/s 740 mmHg 57%
    10:00 +15°C° 0 mm 6 m/s 740 mmHg 54%
    11:00 +16°C° 0 mm 6 m/s 740 mmHg 51%
    12:00 +16°C° 0 mm 6 m/s 740 mmHg 51%
    13:00 +16°C° 0 mm 6 m/s 740 mmHg 52%
    14:00 +16°C° 0 mm 5 m/s 740 mmHg 52%
    15:00 +16°C° 0 mm 5 m/s 740 mmHg 53%
    16:00 +17°C° 0 mm 4 m/s 740 mmHg 53%
    17:00 +17°C° 0 mm 4 m/s 740 mmHg 53%
    18:00 +16°C° 0,1 mm 3 m/s 740 mmHg 60%
    19:00 +13°C° 0,1 mm 3 m/s 740 mmHg 66%
    20:00 +13°C° 0,1 mm 2 m/s 740 mmHg 73%
    21:00 +12°C° 0 mm 2 m/s 740 mmHg 76%
    22:00 +10°C° 0 mm 2 m/s 740 mmHg 79%
    23:00 +10°C° 0 mm 2 m/s 740 mmHg 82%

    Mâine, 21 August, Marţi

    Timp Temperatura Precipitaţii Vânt Presiune Umiditate
    00:00 +9°C° 0 mm 2 m/s 740 mmHg 84%
    01:00 +10°C° 0 mm 1 m/s 740 mmHg 86%
    02:00 +9°C° 0 mm 1 m/s 740 mmHg 88%
    03:00 +9°C° 0 mm 1 m/s 740 mmHg 88%
    04:00 +10°C° 0 mm 1 m/s 740 mmHg 88%
    05:00 +10°C° 0 mm 1 m/s 740 mmHg 88%
    06:00 +11°C° 0 mm 1 m/s 739 mmHg 82%
    07:00 +12°C° 0 mm 1 m/s 739 mmHg 77%
    08:00 +14°C° 0 mm 2 m/s 739 mmHg 71%
    09:00 +14°C° 0,1 mm 2 m/s 740 mmHg 70%
    10:00 +14°C° 0,1 mm 3 m/s 740 mmHg 69%
    11:00 +15°C° 0,1 mm 4 m/s 740 mmHg 67%
    12:00 +14°C° 0,3 mm 4 m/s 740 mmHg 70%
    13:00 +13°C° 0,3 mm 5 m/s 740 mmHg 72%
    14:00 +13°C° 0,3 mm 6 m/s 740 mmHg 74%
    15:00 +11°C° 0 mm 6 m/s 740 mmHg 71%
    16:00 +11°C° 0 mm 6 m/s 741 mmHg 68%
    17:00 +11°C° 0 mm 6 m/s 741 mmHg 65%
    18:00 +10°C° 0 mm 6 m/s 741 mmHg 66%
    19:00 +10°C° 0 mm 6 m/s 741 mmHg 66%
    20:00 +9°C° 0 mm 5 m/s 742 mmHg 66%
    21:00 +9°C° 0 mm 6 m/s 742 mmHg 69%
    22:00 +8°C° 0 mm 6 m/s 742 mmHg 71%
    23:00 +8°C° 0 mm 6 m/s 743 mmHg 73%

    Poimâine, 22 August, Miercuri

    Timp Temperatura Precipitaţii Vânt Presiune Umiditate
    00:00 +7°C° 0 mm 6 m/s 743 mmHg 74%
    01:00 +7°C° 0 mm 6 m/s 743 mmHg 75%
    02:00 +7°C° 0 mm 6 m/s 744 mmHg 75%
    03:00 +7°C° 0 mm 6 m/s 744 mmHg 73%
    04:00 +6°C° 0 mm 5 m/s 745 mmHg 71%
    05:00 +6°C° 0 mm 5 m/s 745 mmHg 69%
    06:00 +7°C° 0 mm 5 m/s 745 mmHg 64%
    07:00 +8°C° 0 mm 6 m/s 745 mmHg 59%
    08:00 +10°C° 0 mm 6 m/s 745 mmHg 54%
    09:00 +11°C° 0 mm 6 m/s 745 mmHg 51%
    10:00 +13°C° 0 mm 6 m/s 745 mmHg 47%
    11:00 +14°C° 0 mm 6 m/s 745 mmHg 44%
    12:00 +15°C° 0 mm 6 m/s 745 mmHg 42%
    13:00 +16°C° 0 mm 6 m/s 745 mmHg 40%
    14:00 +16°C° 0 mm 6 m/s 745 mmHg 39%
    15:00 +16°C° 0 mm 5 m/s 745 mmHg 40%
    16:00 +16°C° 0 mm 5 m/s 745 mmHg 41%
    17:00 +17°C° 0 mm 4 m/s 745 mmHg 42%
    18:00 +14°C° 0 mm 3 m/s 745 mmHg 48%
    19:00 +13°C° 0 mm 3 m/s 746 mmHg 54%
    20:00 +12°C° 0 mm 2 m/s 746 mmHg 59%
    21:00 +10°C° 0 mm 2 m/s 746 mmHg 62%
    22:00 +9°C° 0 mm 2 m/s 746 mmHg 64%
    23:00 +8°C° 0 mm 2 m/s 745 mmHg 67%

    23 August, Joi

    Timp Temperatura Precipitaţii Vânt Presiune Umiditate
    00:00 +9°C° 0 mm 2 m/s 745 mmHg 67%
    01:00 +9°C° 0 mm 2 m/s 745 mmHg 67%
    02:00 +9°C° 0 mm 2 m/s 745 mmHg 67%
    03:00 +9°C° 0,6 mm 2 m/s 744 mmHg 75%
    04:00 +8°C° 0,6 mm 2 m/s 744 mmHg 82%
    05:00 +8°C° 0,6 mm 2 m/s 744 mmHg 89%
    06:00 +8°C° 0,3 mm 2 m/s 743 mmHg 91%
    07:00 +9°C° 0,3 mm 2 m/s 743 mmHg 92%
    08:00 +9°C° 0,3 mm 3 m/s 743 mmHg 93%
    09:00 +10°C° 0 mm 2 m/s 743 mmHg 92%
    10:00 +12°C° 0 mm 2 m/s 743 mmHg 90%
    11:00 +13°C° 0 mm 2 m/s 742 mmHg 89%
    12:00 +14°C° 0 mm 2 m/s 743 mmHg 86%
    13:00 +15°C° 0 mm 1 m/s 743 mmHg 84%
    14:00 +16°C° 0 mm 1 m/s 743 mmHg 81%
    15:00 +16°C° 0 mm 1 m/s 743 mmHg 80%
    16:00 +16°C° 0 mm 1 m/s 743 mmHg 78%
    17:00 +18°C° 0 mm 1 m/s 743 mmHg 77%
    18:00 +16°C° 0 mm 1 m/s 743 mmHg 82%
    19:00 +15°C° 0 mm 1 m/s 743 mmHg 86%
    20:00 +14°C° 0 mm 1 m/s 743 mmHg 91%
    21:00 +14°C° 0 mm 1 m/s 743 mmHg 93%
    22:00 +13°C° 0 mm 1 m/s 743 mmHg 95%
    23:00 +13°C° 0 mm 1 m/s 743 mmHg 96%

    24 August, Vineri

    Timp Temperatura Precipitaţii Vânt Presiune Umiditate
    00:00 +13°C° 0 mm 1 m/s 743 mmHg 97%
    01:00 +13°C° 0 mm 1 m/s 743 mmHg 98%
    02:00 +13°C° 0 mm 1 m/s 743 mmHg 98%
    03:00 +13°C° 0,1 mm 2 m/s 743 mmHg 98%
    04:00 +14°C° 0,1 mm 2 m/s 743 mmHg 98%
    05:00 +14°C° 0,1 mm 2 m/s 743 mmHg 98%
    06:00 +15°C° 0 mm 2 m/s 743 mmHg 96%
    07:00 +14°C° 0 mm 3 m/s 743 mmHg 94%
    08:00 +16°C° 0 mm 3 m/s 743 mmHg 92%
    09:00 +17°C° 0 mm 3 m/s 743 mmHg 90%
    10:00 +17°C° 0 mm 3 m/s 743 mmHg 87%
    11:00 +18°C° 0 mm 3 m/s 744 mmHg 85%
    12:00 +19°C° 0,1 mm 3 m/s 744 mmHg 82%
    13:00 +19°C° 0,1 mm 4 m/s 744 mmHg 79%
    14:00 +20°C° 0,1 mm 4 m/s 744 mmHg 76%
    15:00 +20°C° 0,1 mm 4 m/s 744 mmHg 76%
    16:00 +20°C° 0,1 mm 4 m/s 744 mmHg 76%
    17:00 +20°C° 0,1 mm 5 m/s 744 mmHg 75%
    18:00 +19°C° 0,1 mm 4 m/s 744 mmHg 80%
    19:00 +18°C° 0,1 mm 4 m/s 744 mmHg 84%
    20:00 +18°C° 0,1 mm 4 m/s 744 mmHg 89%
    21:00 +18°C° 0,5 mm 4 m/s 744 mmHg 90%
    22:00 +18°C° 0,5 mm 4 m/s 744 mmHg 90%
    23:00 +18°C° 0,5 mm 4 m/s 744 mmHg 91%

    25 August, Sâmbătă

    Timp Temperatura Precipitaţii Vânt Presiune Umiditate
    00:00 +18°C° 0,3 mm 4 m/s 744 mmHg 91%
    01:00 +17°C° 0,3 mm 4 m/s 744 mmHg 91%
    02:00 +17°C° 0,3 mm 4 m/s 744 mmHg 91%
    03:00 +17°C° 0,1 mm 4 m/s 744 mmHg 91%
    04:00 +17°C° 0,1 mm 4 m/s 744 mmHg 91%
    05:00 +15°C° 0,1 mm 4 m/s 744 mmHg 91%
    06:00 +16°C° 0,2 mm 5 m/s 743 mmHg 89%
    07:00 +17°C° 0,2 mm 5 m/s 743 mmHg 87%
    08:00 +17°C° 0,2 mm 5 m/s 743 mmHg 84%
    09:00 +19°C° 0,6 mm 5 m/s 743 mmHg 83%
    10:00 +19°C° 0,6 mm 5 m/s 743 mmHg 82%
    11:00 +20°C° 0,6 mm 5 m/s 743 mmHg 81%
    12:00 +19°C° 0,7 mm 5 m/s 743 mmHg 84%
    13:00 +19°C° 0,7 mm 4 m/s 743 mmHg 86%
    14:00 +18°C° 0,7 mm 4 m/s 744 mmHg 89%
    15:00 +18°C° 0,3 mm 4 m/s 744 mmHg 89%
    16:00 +18°C° 0,3 mm 3 m/s 744 mmHg 89%
    17:00 +18°C° 0,3 mm 3 m/s 744 mmHg 89%
    18:00 +17°C° 0,3 mm 2 m/s 744 mmHg 92%
    19:00 +17°C° 0,3 mm 2 m/s 745 mmHg 94%
    20:00 +16°C° 0,3 mm 2 m/s 745 mmHg 96%
    21:00 +16°C° 0,1 mm 1 m/s 745 mmHg 96%
    22:00 +15°C° 0,1 mm 1 m/s 746 mmHg 95%
    23:00 +15°C° 0,1 mm 1 m/s 746 mmHg 95%
    Arată mai mult